Find OTP-2

NORAD ID: 63235 Int'l Des: 2025-052 Owner: ROGUE Country: US operational
LEOCIRCULARRETROGRADESSO

Current View

Loading 3D Globe...

About OTP-2

Description loading...

Upcoming Passes

Passes for default location (London). Set your location on the main map for personalized predictions.

Altitude History

Loading altitude history...

Two-Line Element Set

1 63235U 25052AB 26149.24958078 .00009828 00000-0 41208-3 0 9993
2 63235 97.3896 41.9634 0005045 214.8551 145.2356 15.23693173 66985
Epoch: May 29, 2026 • Age: 19 hours

Current Status

Altitude 514.9 km
Velocity 7.60 km/s
Sub-Earth Point -50.91°S, 154.14°E
Launch Date Mar 15, 2025
Age 1.2 years
Type other

Technical Details

Classification Payload
Mass 11.00 kg
Dry Mass 11.00 kg
Total Mass 11.00 kg
Length 0.50 m
Diameter 0.10 m
Span 0.50 m
Shape Box+ 2 pan
Manufacturer ROGUE
Bus Type Cubesat 8U
Phase Status In Orbit
Owner/State ROGUE/US

Most Searched